Jaipur / Sanganer, India

8:29 PM IST on March 25, 2017 (GMT +0530)
Jaipur / Sanganer

Weather History for 42348 - October, 2012

Change the Weather History Date:

Tuesday, October 16, 2012

  Actual Average Record
Temperature  
Mean Temperature 80 °F -  
Max Temperature 93 °F - - ()
Min Temperature 66 °F - - ()
Cooling Degree Days 14    
Growing Degree Days 30 (Base 50)    
Moisture  
Dew Point 58 °F    
Average Humidity 50    
Maximum Humidity 73    
Minimum Humidity 22    
Precipitation  
Precipitation 0.00 in - - ()
Sea Level Pressure  
Sea Level Pressure 30.03 in    
Wind  
Wind Speed 6 mph ()    
Max Wind Speed 13 mph    
Max Gust Speed -    
Visibility 2.0 miles    
Events      
T = Trace of Precipitation, MM = Missing Value Source: Averaged Metar Reports

Daily Weather History Graph

Daily Weather History Graph

Search for Another Location

Airport or City:

Trip Planner

Search our weather history database for the weather conditions in past years. The results will help you decide how hot, cold, wet, or windy it might be!

Date:

Astronomy

Oct. 16, 2012 Rise Set
Actual Time 6:26 AM IST 5:57 PM IST
Civil Twilight 6:03 AM IST 6:20 PM IST
Nautical Twilight 5:36 AM IST 6:47 PM IST
Astronomical Twilight 5:09 AM IST 7:14 PM IST
Moon 7:07 AM IST (10/16) 6:31 PM IST (10/16)
Length of Visible Light 12h 17m
Length of Day
11h 30m
New Moon, 1% of the Moon is Illuminated
Oct 16
New Moon
Oct 22
First Quarter
Oct 30
Full
Nov 7
Last Quarter
Nov 14
New

Hourly Weather History & Observations

Time (IST) Temp. Heat Index Dew Point Humidity Pressure Visibility Wind Dir Wind Speed Gust Speed Precip Events Conditions
1:00 AM 75.2 °F - 60.8 °F 61% 30.01 in 1.9 mi NE 12.7 mph - N/A   Haze
2:00 AM 73.4 °F - 60.8 °F 65% 30.01 in 1.9 mi NE 10.4 mph - N/A   Haze
2:30 AM 73.4 °F - 59.0 °F 61% 30.01 in 1.9 mi NE 9.2 mph - N/A   Haze
3:00 AM 71.6 °F - 59.0 °F 64% 30.01 in 1.9 mi NNE 11.5 mph - N/A   Haze
4:00 AM 71.6 °F - 59.0 °F 64% 30.04 in 1.9 mi NE 8.1 mph - N/A   Haze
5:00 AM 71.6 °F - 59.0 °F 64% 30.04 in 1.9 mi Variable 4.6 mph - N/A   Haze
5:30 AM 71 °F - 58 °F 55% 29.99 in 1 mi East 5.8 mph - -   Haze
5:30 AM 71.6 °F - 59.0 °F 64% 30.04 in 1.9 mi East 5.8 mph - N/A   Haze
6:00 AM 68.0 °F - 57.2 °F 68% 30.04 in 1.9 mi East 5.8 mph - N/A   Haze
6:30 AM 66.2 °F - 57.2 °F 73% 30.06 in 1.9 mi East 4.6 mph - N/A   Haze
7:00 AM 69.8 °F - 59.0 °F 68% 30.06 in 1.9 mi NE 3.5 mph - N/A   Haze
7:30 AM 69.8 °F - 59.0 °F 68% 30.06 in 1.9 mi Variable 3.5 mph - N/A   Haze
8:00 AM 71.6 °F - 59.0 °F 64% 30.06 in 1.9 mi East 4.6 mph - N/A   Haze
8:30 AM 75 °F - 56 °F 42% 30.03 in 1 mi ENE 4.6 mph - -   Haze
8:30 AM 73.4 °F - 59.0 °F 61% 30.09 in 1.9 mi East 5.8 mph - N/A   Haze
9:00 AM 77.0 °F - 55.4 °F 47% 30.09 in 1.9 mi East 6.9 mph - N/A   Haze
9:30 AM 77.0 °F - 55.4 °F 47% 30.09 in 1.9 mi East 8.1 mph - N/A   Haze
10:00 AM 80.6 °F 82.3 °F 64.4 °F 58% 30.09 in 1.9 mi East 3.5 mph - N/A   Haze
10:30 AM 84.2 °F 83.0 °F 55.4 °F 37% 30.09 in 2.5 mi ESE 5.8 mph - N/A   Haze
11:00 AM 84.2 °F 83.0 °F 55.4 °F 37% 30.09 in 2.5 mi Variable 5.8 mph - N/A   Haze
11:30 AM 86 °F - 57 °F 27% 30.00 in 2 mi ENE 6.9 mph - -   Haze
11:30 AM 84.2 °F 83.0 °F 55.4 °F 37% 30.09 in 2.5 mi Variable 5.8 mph - N/A   Haze
12:00 PM 86.0 °F 84.9 °F 57.2 °F 37% 30.06 in 2.5 mi ESE 4.6 mph - N/A   Haze
1:00 PM 87.8 °F 86.5 °F 57.2 °F 35% 30.04 in 2.5 mi Variable 3.5 mph - N/A   Haze
2:00 PM 89.6 °F 88.1 °F 57.2 °F 33% 30.01 in 2.5 mi Variable 2.3 mph - N/A   Haze
2:30 PM 90 °F - 56 °F 22% 29.91 in 2 mi West 4.6 mph - -   Haze
3:00 PM 87.8 °F 86.5 °F 57.2 °F 35% 29.98 in 2.5 mi Variable 2.3 mph - N/A   Haze
4:00 PM 89.6 °F 88.1 °F 57.2 °F 33% 29.98 in 2.5 mi SW 4.6 mph - N/A   Haze
5:00 PM 87.8 °F 86.5 °F 57.2 °F 35% 29.95 in 2.5 mi West 6.9 mph - N/A   Haze
5:30 PM 87 °F - 58 °F 27% 29.91 in 2 mi West 4.6 mph - -   Haze
6:00 PM 84.2 °F 83.5 °F 57.2 °F 40% 29.98 in 2.5 mi Variable 2.3 mph - N/A   Haze
8:00 PM 77.0 °F - 59.0 °F 54% 30.04 in 1.9 mi Calm Calm - N/A   Haze
8:30 PM 78 °F - 62 °F 48% 29.96 in 1 mi Calm Calm - -   Haze
9:00 PM 77.0 °F - 60.8 °F 57% 30.04 in 1.9 mi Calm Calm - N/A   Haze
10:00 PM 75.2 °F - 62.6 °F 65% 30.04 in 1.6 mi ESE 5.8 mph - N/A   Haze
11:00 PM 77.0 °F - 62.6 °F 61% 30.04 in 1.6 mi Calm Calm - N/A   Haze
11:30 PM 76 °F - 58 °F 44% 29.97 in 1 mi Calm Calm - -   Haze